[[{"header":{"parameterUnit":"m.s-1","parameterCategory":1,"la1":30.2991,"la2":30.254,"lo1":-89.0895,"lo2":-89.0444,"dy":0.0017,"dx":0.0017,"nx":28,"ny":28,"refTime":"2024-12-07T03:00:00:Z","depth":0,"parameterNumber":2,"parameterNumberName":"U-component_of_WINDS"},"data":[0,0,0,0,0,0,0,0,0,0,0,0,0,0,0,0,0,0,0,0,0,0,0,0,0,0,0,0,0,0,0,0,0,0,0,0,0,0,0,0,0,0,0,0,0,0,0,0,0,0,0,0,0,0,0,0,0,0,-2.9269,-2.9269,0,-2.9333,-2.9334,-2.9335,-2.9286,-2.9284,-2.9282,-2.928,-2.9348,-2.9352,-2.9356,0,0,0,0,0,0,0,0,0,0,0,0,0,-2.9105,-2.9108,-2.9268,-2.9269,-2.927,-2.9333,-2.9334,-2.9335,-2.9287,-2.9284,-2.9281,-2.9279,-2.9347,-2.9351,-2.9356,0,0,0,0,0,0,0,0,0,0,0,0,0,-2.9173,-2.9109,-2.9268,-2.9254,-2.9253,-2.9333,-2.9334,-2.9335,-2.9287,-2.9284,-2.9281,-2.9278,-2.9345,-2.9351,-2.9356,-2.9455,0,0,-2.9374,-2.9376,0,0,0,0,0,0,0,0,-2.917,-2.918,-2.9255,-2.9255,-2.9254,-2.9298,-2.9301,-2.9375,-2.9288,-2.9274,-2.928,-2.9276,-2.9334,-2.9341,-2.936,-2.9458,-2.9461,-2.9374,-2.9378,-2.938,-2.9382,0,0,0,0,0,0,0,-2.9165,-2.9176,-2.9294,-2.9256,-2.9256,-2.9244,-2.925,-2.9315,-2.9321,-2.9275,-2.9272,-2.928,-2.9333,-2.9354,-2.9361,-2.9462,-2.9374,-2.9379,-2.9383,-2.9385,-2.9643,-2.9646,0,0,0,0,0,0,-2.9161,-2.9173,-2.9292,-2.9296,-2.9203,-2.925,-2.9257,-2.9287,-2.932,-2.9322,-2.9283,-2.9278,-2.9346,-2.9354,-2.9363,-2.9479,-2.938,-2.9385,-2.9389,-2.9639,-2.9644,-2.9647,0,0,0,0,0,0,-2.9158,-2.9172,-2.9289,-2.9234,-2.9248,-2.9256,-2.9291,-2.929,-2.9311,-2.9326,-2.9327,-2.9303,-2.9344,-2.9355,-2.9432,-2.948,-2.9388,-2.9393,-2.9635,-2.9641,-2.9645,-2.9712,0,0,0,0,0,0,-2.9154,-2.9172,-2.9209,-2.9235,-2.9251,-2.9357,-2.9294,-2.9294,-2.9321,-2.9315,-2.9345,-2.9347,-2.9342,-2.9424,-2.9438,-2.9487,-2.9398,-2.9631,-2.9638,-2.9644,-2.9705,-2.9719,-2.973,0,0,0,0,0,-2.9148,-2.9226,-2.9211,-2.9225,-2.9297,-2.936,-2.9369,-2.9361,-2.9325,-2.9362,-2.9372,-2.9346,-2.9474,-2.9432,-2.9447,-2.9499,-2.9628,-2.9636,-2.9643,-2.97,-2.9716,-2.973,0,0,0,0,0,0,-2.9206,-2.9229,-2.9212,-2.9301,-2.9329,-2.9351,-2.9398,-2.9379,-2.9418,-2.9411,-2.94,-2.9408,-2.9488,-2.9501,-2.9455,-2.9595,-2.9545,-2.9556,-2.9583,-2.9598,-2.961,-2.9604,-2.9402,0,0,0,0,0,-2.9229,-2.9277,-2.9295,-2.9371,-2.9386,-2.939,-2.9417,-2.9409,-2.9437,-2.9449,-2.9464,-2.9493,-2.9539,-2.957,-2.9614,-2.9708,-2.9713,-2.9751,-2.9763,-2.9773,-2.9782,-2.9832,-2.9848,-2.9673,-2.9673,-2.9673,0,0,-2.9277,-2.9295,-2.9327,-2.9383,-2.9404,-2.9454,-2.94,-2.9456,-2.9493,-2.9457,-2.9529,-2.9542,-2.9574,-2.9659,-2.9698,-2.9673,-2.9832,-2.9783,-2.9791,-2.9795,-2.9841,-2.9858,-2.9872,-2.9678,-2.9677,-2.9676,0,0,-2.9389,-2.9409,-2.9473,-2.9495,-2.9526,-2.9528,-2.9544,-2.957,-2.9576,-2.9649,-2.9623,-2.9668,-2.9748,-2.9771,-2.9794,-2.9915,-2.9892,-2.993,-2.9994,-3.0042,-3.0055,-3.0067,-3.0109,-3.0124,-2.9939,-2.994,-2.994,0,-2.9445,-2.9519,-2.9509,-2.9566,-2.9592,-2.9562,-2.9627,-2.9649,-2.9693,-2.9711,-2.9683,-2.9782,-2.9802,-2.9892,-2.9921,-2.9941,-2.9958,-2.9925,-3.0054,-3.0066,-3.0077,-3.0116,-3.0132,-2.9944,-2.9943,-2.9943,-2.9943,0,-2.9584,-2.9636,-2.9685,-2.9727,-2.9758,-2.982,-2.9819,-2.9852,-2.9842,-2.9847,-2.9921,-2.9944,-2.999,-3.0012,-3.0003,-3.01,-3.0083,-3.0055,-3.0004,-3.0098,-3.0135,-3.015,-2.995,-2.9948,-2.9947,-2.9946,0,0,-2.9733,-2.977,-2.9787,-2.9805,-2.9838,-2.9878,-2.9938,-2.9983,-3.001,-3.0043,-3.0092,-3.0161,-3.0135,-3.016,-3.0154,-3.0196,-3.0288,-3.0162,-3.0163,-3.0183,-3.0395,-3.0413,-3.0431,-3.0275,-3.0277,-3.028,-3.0391,0,-2.9845,-2.9948,-2.9941,-3.0038,-3.0085,-3.0057,-3.0109,-3.0135,-3.0142,-3.0183,-3.0192,-3.0239,-3.0203,-3.0217,-3.0259,-3.0268,-3.033,-3.0261,-3.0319,-3.0321,-3.0309,-3.045,-3.0471,-3.0574,-3.0406,-3.0408,-3.041,0,-2.9989,-3.0024,-3.0125,-3.015,-3.0169,-3.0216,-3.0256,-3.0296,-3.0325,-3.0327,-3.0356,-3.0342,-3.0402,-3.0352,-3.0434,-3.0387,-3.0411,-3.042,-3.0424,-3.0426,-3.0369,-3.0455,-3.0608,-3.0622,-3.0433,-3.0431,-3.0429,0,-3.0084,-3.0158,-3.0227,-3.0244,-3.0275,-3.0308,-3.0322,-3.0348,-3.0375,-3.0411,-3.0428,-3.0472,-3.0495,-3.0528,-3.0527,-3.049,-3.061,-3.056,-3.0612,-3.0612,-3.0636,-3.0634,-3.0792,-3.0657,-3.0656,-3.0656,-3.0656,0,-3.0208,-3.027,-3.0269,-3.0312,-3.0381,-3.0374,-3.0442,-3.0453,-3.0476,-3.052,-3.0501,-3.0543,-3.0539,-3.0582,-3.0582,-3.0649,-3.066,-3.0663,-3.0661,-3.0663,-3.0662,-3.0676,-3.0668,-3.066,-3.0659,-3.0658,-3.0658,0,-3.0324,-3.0327,-3.04,-3.0423,-3.0431,-3.048,-3.05,-3.054,-3.0546,-3.0602,-3.0615,-3.0624,-3.0673,-3.0675,-3.0732,-3.0732,-3.0813,-3.0805,-3.0802,-3.08,-3.0851,-3.0845,-3.1022,-3.1043,-3.0896,-3.0898,-3.0899,0,-3.0401,-3.0448,-3.0476,-3.0504,-3.052,-3.0565,-3.0592,-3.0588,-3.0617,-3.0653,-3.0689,-3.0736,-3.0773,-3.0853,-3.0865,-3.0908,-3.0899,-3.0958,-3.0905,-3.0905,-3.0897,-3.0893,-3.0896,-3.0968,-3.0969,-3.0971,-3.0972,0,-3.0537,-3.0536,-3.0575,-3.0616,-3.0648,-3.068,-3.071,-3.0734,-3.0733,-3.0767,-3.0816,-3.0845,-3.0902,-3.0949,-3.0991,-3.1007,-3.0989,-3.0989,-3.1002,-3.1003,-3.0998,-3.0999,-3.0827,-3.0984,-3.0983,-3.0982,-3.0981,-3.0981,-3.0634,-3.0674,-3.0699,-3.0744,-3.0765,-3.0793,-3.0831,-3.0842,-3.0883,-3.0928,-3.0924,-3.0978,-3.1006,-3.106,-3.1079,-3.1122,-3.1102,-3.1123,-3.1127,-3.1132,-3.1136,-3.0994,-3.113,-3.113,-3.113,-3.1129,-3.1129,0,-3.0766,-3.0781,-3.0822,-3.0863,-3.0899,-3.0879,-3.0911,-3.0942,-3.0989,-3.1016,-3.1053,-3.1109,-3.1155,-3.117,-3.1214,-3.1245,-3.1238,-3.1257,-3.1253,-3.1256,-3.1153,-3.1135,-3.1261,-3.1261,-3.1261,-3.1261,-3.1261,-3.1261,-3.0839,-3.0904,-3.0906,-3.0982,-3.0997,-3.1049,-3.1069,-3.1094,-3.1115,-3.1179,-3.1216,-3.1226,-3.1248,-3.1293,-3.1334,-3.1337,-3.1353,-3.1375,-3.1375,-3.1277,-3.1264,-3.1251,-3.1234,-3.1379,-3.1379,-3.1474,-3.1475,-3.1475]},{"header":{"parameterUnit":"m.s-1","parameterCategory":1,"la1":30.2991,"la2":30.254,"lo1":-89.0895,"lo2":-89.0444,"dy":0.0017,"dx":0.0017,"nx":28,"ny":28,"refTime":"2024-12-07T03:00:00:Z","depth":0,"parameterNumber":3,"parameterNumberName":"V-component_of_WINDS"},"data":[0,0,0,0,0,0,0,0,0,0,0,0,0,0,0,0,0,0,0,0,0,0,0,0,0,0,0,0,0,0,0,0,0,0,0,0,0,0,0,0,0,0,0,0,0,0,0,0,0,0,0,0,0,0,0,0,0,0,0.7204,0.7205,0,0.7249,0.725,0.725,0.7224,0.7223,0.7222,0.722,0.7268,0.727,0.7273,0,0,0,0,0,0,0,0,0,0,0,0,0,0.7099,0.7101,0.7204,0.7205,0.7205,0.7249,0.725,0.725,0.7224,0.7223,0.7221,0.722,0.7267,0.727,0.7273,0,0,0,0,0,0,0,0,0,0,0,0,0,0.7144,0.7101,0.7204,0.7198,0.7197,0.7249,0.725,0.725,0.7225,0.7223,0.7221,0.7219,0.7266,0.727,0.7273,0.7334,0,0,0.7285,0.7286,0,0,0,0,0,0,0,0,0.7142,0.7148,0.7198,0.7198,0.7198,0.7229,0.723,0.7278,0.7225,0.7214,0.722,0.7218,0.7257,0.7261,0.7274,0.7336,0.7338,0.7285,0.7287,0.7289,0.729,0,0,0,0,0,0,0,0.7139,0.7146,0.7222,0.7199,0.7199,0.7193,0.7198,0.7239,0.7246,0.7215,0.7213,0.7219,0.7256,0.727,0.7275,0.7339,0.7285,0.7288,0.729,0.7292,0.7456,0.7459,0,0,0,0,0,0,0.7135,0.7144,0.722,0.7223,0.7165,0.7197,0.7202,0.7221,0.7245,0.7247,0.7221,0.7218,0.7265,0.727,0.7276,0.7351,0.7289,0.7292,0.7294,0.7454,0.7457,0.7459,0,0,0,0,0,0,0.7133,0.7143,0.7219,0.7183,0.7192,0.7201,0.7223,0.7223,0.7237,0.7249,0.725,0.7233,0.7264,0.7271,0.732,0.7352,0.7294,0.7297,0.7452,0.7455,0.7458,0.75,0,0,0,0,0,0,0.713,0.7142,0.7164,0.7184,0.7194,0.7262,0.7224,0.7225,0.7243,0.724,0.7262,0.7263,0.7263,0.7315,0.7324,0.7356,0.73,0.7449,0.7453,0.7457,0.7496,0.7505,0.7512,0,0,0,0,0,0.7127,0.7174,0.7166,0.7175,0.7222,0.7263,0.727,0.7267,0.7245,0.7269,0.7277,0.7263,0.7347,0.732,0.733,0.7364,0.7447,0.7452,0.7457,0.7493,0.7503,0.7512,0,0,0,0,0,0,0.7159,0.7177,0.7167,0.7222,0.7242,0.7259,0.7288,0.7278,0.7304,0.73,0.7296,0.7301,0.7354,0.7363,0.7333,0.7425,0.7394,0.7401,0.7418,0.7427,0.7435,0.7433,0.7303,0,0,0,0,0,0.7172,0.7204,0.7217,0.7265,0.7275,0.728,0.7298,0.7294,0.7314,0.7323,0.7334,0.7355,0.7386,0.7407,0.7436,0.7497,0.7503,0.7525,0.7533,0.7539,0.7546,0.7582,0.7593,0.7475,0.7475,0.7475,0,0,0.7201,0.7214,0.7234,0.7272,0.7286,0.732,0.7287,0.7323,0.7349,0.7328,0.7376,0.7386,0.7408,0.7464,0.749,0.7474,0.758,0.7545,0.755,0.7554,0.7588,0.7599,0.7609,0.7479,0.7478,0.7478,0,0,0.727,0.7282,0.7325,0.734,0.7362,0.7365,0.7376,0.7395,0.74,0.7448,0.7434,0.7464,0.7517,0.7535,0.7551,0.7628,0.7617,0.7638,0.768,0.7715,0.7724,0.7732,0.7763,0.7773,0.7644,0.7644,0.7644,0,0.7303,0.7353,0.7348,0.7386,0.7404,0.7386,0.743,0.7445,0.7476,0.7489,0.7471,0.7539,0.7553,0.7614,0.7633,0.7645,0.7659,0.7637,0.7723,0.7731,0.7739,0.7768,0.7779,0.7647,0.7647,0.7646,0.7646,0,0.7393,0.7428,0.7459,0.749,0.7511,0.7552,0.7554,0.7576,0.7571,0.7577,0.7627,0.7643,0.7676,0.769,0.7685,0.7751,0.7741,0.7723,0.7692,0.7753,0.778,0.7791,0.7651,0.765,0.7649,0.7648,0,0,0.7486,0.7514,0.7526,0.754,0.7564,0.7591,0.7631,0.7664,0.7684,0.7706,0.7742,0.7787,0.7771,0.7789,0.7786,0.7816,0.788,0.7794,0.7795,0.7812,0.7958,0.7974,0.7986,0.7871,0.7873,0.7875,0.7957,0,0.7559,0.763,0.7627,0.7694,0.7727,0.7711,0.7746,0.7765,0.7772,0.7802,0.7808,0.7842,0.7817,0.7828,0.7857,0.7866,0.791,0.786,0.7907,0.7908,0.7905,0.8,0.8017,0.8093,0.7967,0.7969,0.797,0,0.7655,0.7681,0.7751,0.7771,0.7785,0.7817,0.7848,0.7876,0.7898,0.79,0.7921,0.7913,0.7956,0.7921,0.7981,0.7947,0.7966,0.7974,0.7976,0.7983,0.7945,0.8013,0.8117,0.813,0.7986,0.7985,0.7984,0,0.772,0.7771,0.7821,0.7833,0.7857,0.7881,0.7892,0.7912,0.7932,0.7959,0.7973,0.8003,0.8021,0.8046,0.8048,0.8022,0.8109,0.8074,0.8115,0.8115,0.8136,0.8136,0.8249,0.8143,0.8143,0.8143,0.8142,0,0.7804,0.7848,0.785,0.7881,0.7931,0.7927,0.7977,0.7986,0.8004,0.8037,0.8023,0.8055,0.8053,0.8086,0.8087,0.8138,0.8145,0.815,0.8151,0.8154,0.8154,0.8168,0.8164,0.8146,0.8145,0.8144,0.8144,0,0.7886,0.7888,0.7942,0.796,0.7966,0.8002,0.8019,0.8049,0.8053,0.8096,0.8106,0.8114,0.8151,0.8154,0.8198,0.8199,0.8262,0.8255,0.8255,0.8255,0.8297,0.8294,0.8426,0.8445,0.8324,0.8325,0.8326,0,0.7941,0.7975,0.7997,0.8019,0.8032,0.8065,0.8086,0.8084,0.8106,0.8134,0.8162,0.8198,0.8227,0.8288,0.8299,0.8332,0.8328,0.8372,0.8333,0.8336,0.8333,0.8332,0.8337,0.838,0.8382,0.8383,0.8384,0,0.804,0.804,0.807,0.8102,0.8127,0.8152,0.8175,0.8193,0.8193,0.822,0.8258,0.8281,0.8325,0.8363,0.8396,0.8408,0.8398,0.8395,0.8407,0.8412,0.8413,0.8416,0.8279,0.8393,0.8392,0.8391,0.8391,0.8391,0.8113,0.8143,0.8165,0.8199,0.8216,0.8238,0.8268,0.8277,0.8309,0.8345,0.8341,0.8384,0.8407,0.845,0.8465,0.85,0.8485,0.8502,0.8507,0.8512,0.8518,0.8404,0.8505,0.8505,0.8505,0.8505,0.8504,0,0.8215,0.8227,0.8259,0.8292,0.832,0.8305,0.833,0.8355,0.8393,0.8415,0.8444,0.8489,0.8525,0.8538,0.8574,0.8599,0.8596,0.8609,0.8609,0.8613,0.8527,0.8515,0.8612,0.8612,0.8612,0.8612,0.8612,0.8612,0.8271,0.8323,0.8325,0.8386,0.8398,0.844,0.8456,0.8477,0.8495,0.8546,0.8576,0.8584,0.8602,0.8639,0.8673,0.8676,0.8691,0.8708,0.8709,0.8629,0.8619,0.8608,0.8597,0.871,0.871,0.8793,0.8793,0.8794]}]]